Weather History for New Bedford, MA

Change the Weather History Date:

Monday, December 24, 2012

  Actual Average Record
Temperature  
Mean Temperature 31 °F -  
Max Temperature 39 °F 39 °F 58 °F (1990)
Min Temperature 23 °F 25 °F 2 °F (1989)
Degree Days  
Heating Degree Days 34    
Moisture  
Dew Point 22 °F    
Average Humidity 70    
Maximum Humidity 89    
Minimum Humidity 45    
Precipitation  
Precipitation 0.00 in - - ()
Sea Level Pressure  
Sea Level Pressure 30.02 in    
Wind  
Wind Speed 3 mph (West)    
Max Wind Speed 9 mph    
Max Gust Speed -    
Visibility 10 miles    
Events Snow    
Averages and records for this station are not official NWS values.
T = Trace of Precipitation, MM = Missing Value Source: NWS Daily Summary

Daily Weather History Graph

Daily Weather History Graph

Search for Another Location

Airport:

Trip Planner

Search our weather history database for the weather conditions in past years. The results will help you decide how hot, cold, wet, or windy it might be!

Date:

Astronomy

Dec. 24, 2012 Rise Set
Actual Time 7:09 AM EST 4:18 PM EST
Civil Twilight 6:37 AM EST 4:50 PM EST
Nautical Twilight 6:02 AM EST 5:25 PM EST
Astronomical Twilight 5:28 AM EST 5:58 PM EST
Moon 1:44 PM EST (12/24) 3:43 AM EST (12/24)
Length of Visible Light 10h 12m
Length of Day
9h 09m
Waxing Gibbous, 88% of the Moon is Illuminated
Dec 24
Waxing Gibbous
Dec 28
Full
Jan 4
Last Quarter
Jan 11
New
Jan 18
First Quarter

Hourly Weather History & Observations

Time (EST) Temp. Windchill Dew Point Humidity Pressure Visibility Wind Dir Wind Speed Gust Speed Precip Events Conditions
12:53 AM 33.1 °F 26.9 °F 19.9 °F 59% 29.90 in 10.0 mi WSW 6.9 mph - N/A   Clear
1:53 AM 28.0 °F 24.2 °F 19.0 °F 69% 29.92 in 10.0 mi WSW 3.5 mph - N/A   Clear
2:53 AM 24.1 °F - 19.0 °F 81% 29.93 in 10.0 mi Calm Calm - N/A   Clear
3:53 AM 25.0 °F - 21.0 °F 85% 29.94 in 10.0 mi Calm Calm - N/A   Clear
4:53 AM 23.0 °F - 19.0 °F 85% 29.95 in 10.0 mi Calm Calm - N/A   Clear
5:53 AM 23.0 °F - 19.9 °F 88% 29.98 in 10.0 mi Calm Calm - N/A   Clear
6:53 AM 23.0 °F - 19.9 °F 88% 30.01 in 10.0 mi Calm Calm - N/A   Clear
7:53 AM 26.1 °F 21.9 °F 21.9 °F 84% 30.03 in 10.0 mi WNW 3.5 mph - N/A   Clear
8:53 AM 36.0 °F 30.3 °F 21.9 °F 57% 30.06 in 10.0 mi Variable 6.9 mph - N/A   Clear
9:53 AM 37.0 °F 30.4 °F 21.0 °F 52% 30.07 in 10.0 mi West 9.2 mph - N/A   Clear
10:53 AM 37.9 °F 31.5 °F 19.9 °F 48% 30.06 in 10.0 mi WNW 9.2 mph - N/A   Clear
11:53 AM 39.9 °F 36.7 °F 21.0 °F 47% 30.04 in 10.0 mi West 4.6 mph - N/A   Clear
12:53 PM 39.9 °F 36.7 °F 19.9 °F 45% 30.03 in 10.0 mi SW 4.6 mph - N/A   Clear
1:53 PM 39.9 °F 35.8 °F 21.0 °F 47% 30.05 in 10.0 mi SW 5.8 mph - N/A   Clear
2:53 PM 37.9 °F 35.5 °F 19.9 °F 48% 30.04 in 10.0 mi West 3.5 mph - N/A   Clear
3:53 PM 36.0 °F 33.3 °F 21.0 °F 55% 30.05 in 10.0 mi WSW 3.5 mph - N/A   Clear
4:53 PM 30.9 °F - 21.0 °F 67% 30.05 in 10.0 mi Calm Calm - N/A   Clear
5:53 PM 28.0 °F - 21.0 °F 75% 30.04 in 10.0 mi Calm Calm - N/A   Clear
6:53 PM 28.0 °F - 23.0 °F 81% 30.07 in 10.0 mi Calm Calm - N/A   Clear
7:53 PM 28.0 °F - 23.0 °F 81% 30.06 in 10.0 mi Calm Calm - N/A   Clear
8:53 PM 28.9 °F - 25.0 °F 85% 30.04 in 10.0 mi Calm Calm - N/A   Clear
9:53 PM 30.0 °F - 27.0 °F 88% 30.04 in 10.0 mi Calm Calm - N/A   Overcast
10:53 PM 30.9 °F - 27.0 °F 85% 30.03 in 10.0 mi Calm Calm - N/A   Overcast
11:53 PM 30.9 °F - 28.0 °F 89% 30.00 in 4.0 mi Calm Calm - 0.00 in Snow Light Snow